This is the latest recevied weather packets stored in our database for station/object EA5JUX. If no packets are shown the sender has not sent any weather packets the latest 10 day(s).
| Time | Temp. | Humidity | Pressure | Rain* | Wind** | Luminosity | Snow |
|---|---|---|---|---|---|---|---|
| 1787731002 | 26.67° C | 70% | 1011.1 hPa | 0 mm | - | - | - |
| 1787730733 | 26.67° C | 70% | 1010.9 hPa | 0 mm | - | - | - |
| 1787730413 | 26.67° C | 71% | 1011.4 hPa | 0 mm | - | - | - |
| 1787730110 | 26.67° C | 73% | 1011.6 hPa | 0 mm | - | - | - |
| 1787729801 | 26.11° C | 74% | 1011.6 hPa | 0 mm | - | - | - |
| 1787729502 | 26.11° C | 74% | 1011.3 hPa | 0 mm | - | - | - |
| 1787729202 | 25.56° C | 75% | 1010.8 hPa | 0 mm | - | - | - |
| 1787728901 | 25.56° C | 75% | 1010.5 hPa | 0 mm | - | - | - |
| 1787728602 | 26.11° C | 74% | 1011.9 hPa | 0 mm | - | - | - |
| 1787728318 | 26.11° C | 73% | 1011.2 hPa | 0 mm | - | - | - |
| 1787728002 | 26.11° C | 73% | 1010.8 hPa | 0 mm | - | - | - |
| 1787727702 | 26.11° C | 73% | 1012.5 hPa | 0 mm | - | - | - |
| 1787727402 | 26.11° C | 74% | 1011.2 hPa | 0 mm | - | - | - |
| 1787727101 | 26.11° C | 73% | 1010.7 hPa | 0 mm | - | - | - |
| 1787726801 | 25.56° C | 73% | 1011.1 hPa | 0 mm | - | - | - |
| 1787726502 | 25.56° C | 74% | 1012.8 hPa | 0 mm | - | - | - |
| 1787726214 | 25.56° C | 76% | 1012.3 hPa | 0 mm | - | - | - |
| 1787725902 | 25° C | 77% | 1011.6 hPa | 0 mm | - | - | - |
| 1787725602 | 25° C | 77% | 1011.1 hPa | 0 mm | - | - | - |
| 1787725302 | 25° C | 77% | 1010.6 hPa | 0 mm | - | - | - |
| 1787725002 | 24.44° C | 77% | 1010.7 hPa | 0 mm | - | - | - |
| 1787724702 | 24.44° C | 77% | 1010.5 hPa | 0 mm | - | - | - |
| 1787724402 | 25° C | 77% | 1010.5 hPa | 0 mm | - | - | - |
| 1787724102 | 25° C | 77% | 1010.3 hPa | 0 mm | - | - | - |
| 1787723801 | 25° C | 77% | 1010.4 hPa | 0 mm | - | - | - |
* Rain latest hour (hover to see other rain measurements)
** Current wind speed in m/s (hover to see current wind gust speed)